CubeBel-2 (EU11S)
1 57175U 23091K   26176.82110072  .00015255  00000-0  53704-3 0  9993
2 57175  97.5054 240.1155 0011157  88.4989 271.7529 15.29356206165628
RS-38S
1 57189U 23091Z   26176.81125880  .00020243  00000-0  57332-3 0  9994
2 57189  97.5094 246.4700 0007641  51.2377 308.9548 15.36282701166018
SONATE-2
1 59112U 24043Q   26176.67505067  .00045415  00000-0  57527-3 0  9997
2 59112  97.5532 327.5956 0007315 167.7602 192.3833 15.59326004129212
GRBBeta
1 60237U 24128C   26176.58232735  .00003506  00000-0  24540-3 0  9994
2 60237  61.9879 186.8103 0039565 136.4274 223.9956 15.06684768107535
Curium One
1 60242U 24128H   26176.36758887  .00007823  00000-0  45003-3 0  9990
2 60242  61.9766 176.7987 0038977 132.1022 228.3398 15.12601786107696
ROBUSTA-3A
1 60243U 24128J   26175.74162040  .00004361  00000-0  26285-3 0  9997
2 60243  61.9846 181.5272 0040317 129.6556 230.8108 15.11735460107560
CatSat
1 60246U 24125J   26176.54763229  .00079939  00000-0  98547-3 0  9995
2 60246  97.2086  29.1620 0022439 150.5091 209.7437 15.59627069108699
HYPERVIEW-1G (RS66S)
1 61772U 24199AP  26176.75630772  .00176133  00000-0  10128-2 0  9992
2 61772  97.2855  56.9220 0005781 189.2820 170.8341 15.78219824136029
AO-123
1 61781U 24199AY  26176.83100308  .00008606  00000-0  24892-3 0  9991
2 61781  97.2998  45.4241 0011906 278.5146  81.4749 15.35790552135250
JINJUSat 1B
1 63210U 25052A   26176.69336654  .00020742  00000-0  63663-3 0  9992
2 63210  97.4003  73.4608 0005219  73.0703 287.1111 15.33754886 71405
NUSHSAT 1
1 63211U 25052B   26176.65810579  .00026160  00000-0  73998-3 0  9994
2 63211  97.3979  74.0204 0005008  77.3756 282.8047 15.36283928 71448
TEVEL2-4
1 63213U 25052D   26176.65818006  .00023808  00000-0  70438-3 0  9991
2 63213  97.3901  73.0647 0004949  87.6789 272.5021 15.34890742 71419
TEVEL2-5
1 63214U 25052E   26176.67964387  .00023328  00000-0  69414-3 0  9997
2 63214  97.3899  73.0315 0004860  88.8974 271.2826 15.34714855 71418
TEVEL2-6
1 63215U 25052F   26176.69216791  .00022914  00000-0  68269-3 0  9996
2 63215  97.3901  73.0284 0004687  89.3459 270.8321 15.34680036 71417
TEVEL2-1
1 63217U 25052H   26176.65895124  .00022889  00000-0  69377-3 0  9999
2 63217  97.3881  72.6101 0005000  97.3114 262.8697 15.34133341 71392
TEVEL2-3
1 63218U 25052J   26176.65328304  .00022765  00000-0  68881-3 0  9993
2 63218  97.3880  72.6267 0004883  97.7388 262.4409 15.34191056 71394
TEVEL2-2
1 63219U 25052K   26176.65921450  .00022535  00000-0  68291-3 0  9995
2 63219  97.3872  72.6125 0005033  97.8047 262.3767 15.34142651 71393
TEVEL2-9
1 63237U 25052AD  26176.64763444  .00020846  00000-0  67250-3 0  9998
2 63237  97.3935  71.9581 0008289 107.9116 252.3030 15.32140765 71324
TEVEL2-7
1 63238U 25052AE  26176.69018330  .00019618  00000-0  63906-3 0  9990
2 63238  97.3941  71.9127 0008379 108.1463 252.0691 15.31840519 71329
TEVEL2-8
1 63239U 25052AF  26176.69851884  .00019896  00000-0  64837-3 0  9992
2 63239  97.3937  71.8977 0008396 108.9489 251.2663 15.31826021 71324
SPIRONE
1 66657U 25274H   26176.69639506  .00002291  00000-0  22234-3 0  9996
2 66657  97.7480 105.8660 0011876 354.2896   5.8186 14.93578639 31493
K-HERO
1 66660U 25274L   26176.69861573  .00002060  00000-0  19831-3 0  9994
2 66660  97.7488 106.0356 0013873 357.3483   2.7661 14.93994040 31509
SNUGLITE-III DURI
1 66661U 25274M   26176.68617837  .00002156  00000-0  20707-3 0  9996
2 66661  97.7486 106.0439 0014465 358.1232   1.9931 14.94029940 31509
SAKHACUBE-CHOLBON
1 67290U 25313AU  26176.69059513  .00012078  00000-0  48572-3 0  9995
2 67290  97.3941 251.6197 0008053 333.1917  26.8904 15.25028585 27271
RS95S (QMR-KWT-2)
1 67291U 25313AV  26176.67088486  .00017338  00000-0  66569-3 0  9995
2 67291  97.3933 251.7933 0007484 330.2475  29.8337 15.26496058 27285
Ten-Koh2
1 68261U 25241B   26176.67192937  .00005578  00000-0  24074-3 0  9998
2 68261  51.6685 279.2479 0005453 166.8325 193.2796 15.23987779 16208
JACK-002
1 68417U 26067B   26176.85441212  .00007248  00000-0  34464-3 0  9991
2 68417  97.4564 135.3378 0000887 166.3073 193.8186 15.19490536 13263
DISCO 2
1 68431U 26067R   26176.81147370  .00009344  00000-0  44704-3 0  9998
2 68431  97.4594 135.2838 0001884  29.4105 330.7236 15.19194989 13255
HADES-SA (SpinnyONE)
1 68446U 26067AG  26175.13794182  .00016537  00000-0  78554-3 0  9999
2 68446  97.4407 133.3305 0009051  64.2263 295.9905 15.19264763 12980
PARUS-6U1
1 68456U 26067AS  26176.82624530  .00006898  00000-0  34620-3 0  9991
2 68456  97.4549 135.0569 0006926  49.0191 311.1641 15.17601840 13245
SAL-E
1 68458U 26067AU  26176.82024164  .00009339  00000-0  46375-3 0  9993
2 68458  97.4473 134.9821 0007466  56.6938 303.5010 15.17872969 13242
FSI-SAT 2
1 68792U 26088A   26176.85196840  .00004132  00000-0  28010-3 0  9993
2 68792  97.5068 325.8945 0015808  79.9834 280.3177 15.06897409  9597
OrigamiSat 2
1 68795U 26088D   26176.84993501  .00013414  00000-0  85105-3 0  9995
2 68795  97.5069 326.0544 0015656  53.3759 306.8907 15.08917563  9605
ARICA 2
1 68796U 26088E   26176.65229031  .00004304  00000-0  27921-3 0  9995
2 68796  97.5063 325.8453 0016684  53.5420 306.7343 15.08488219  9575
WASEDA-SAT-ZERO-II
1 68797U 26088F   26176.84570705  .00006682  00000-0  42838-3 0  9999
2 68797  97.5058 326.0458 0016312  52.4883 307.7826 15.08729808  9600
MANGARO-II-Piscus
1 68798U 26088G   26176.37120838  .00004359  00000-0  27970-3 0  9995
2 68798  97.5069 325.6131 0020093  56.1044 304.2092 15.08836752  9533
IO-86
1 40931U          25360.30710720  .00000000  00000-0  12800-3 0    00
2 40931   6.0006 332.5373 0012733 338.8432   8.1437 14.79075515    01
LILIUM-4                
1 71922C 26067AC  26089.50133053 -.00014632  00000+0 -74472-3 0    04
2 71922  97.4497  49.1617 0004341   5.9603 355.7042 15.16896692    16
